Location: Lynch Observatory
(39.9540°N, 75.1861°W)
Time: 09:03:19
(UTC-04:00)

CUBEBUG 2 - Visible Passes

Search period start: 13 April 2024 00:00
Search period end: 23 April 2024 00:00
Orbit: 571 x 672 km, 97.8° (Epoch: 12 April)

Date Brightness Start Highest point End Pass type
(mag) Time Alt. Az. Time Alt. Az. Time Alt. Az.
13 Apr ? 02:58:16 10° NNE 02:59:35 20° NNE 02:59:35 20° NNE visible
14 Apr ? 03:16:00 10° N 03:17:39 24° N 03:17:39 24° N visible
15 Apr ? 03:33:51 10° N 03:35:42 25° N 03:35:42 25° N visible
16 Apr ? 02:16:19 10° NE 02:16:33 11° NE 02:16:33 11° NE visible
16 Apr ? 03:51:51 10° N 03:53:45 22° NNW 03:53:45 22° NNW visible
17 Apr ? 02:33:29 10° NE 02:34:35 16° NE 02:34:35 16° NE visible
17 Apr ? 04:10:03 10° NNW 04:11:48 18° NW 04:11:48 18° NW visible
18 Apr ? 02:50:55 10° NNE 02:52:38 23° NE 02:52:38 23° NE visible
18 Apr ? 04:28:40 10° NW 04:29:50 13° NW 04:29:50 13° NW visible
19 Apr ? 03:08:32 10° NNE 03:10:39 30° NNE 03:10:39 30° NNE visible
20 Apr ? 03:26:16 10° N 03:28:40 33° N 03:28:40 33° N visible
21 Apr ? 02:09:07 10° NE 02:09:28 11° ENE 02:09:28 11° ENE visible
21 Apr ? 03:44:10 10° N 03:46:40 30° NNW 03:46:40 30° NNW visible
22 Apr ? 02:26:04 10° NE 02:27:28 17° NE 02:27:28 17° NE visible
22 Apr ? 04:02:13 10° NNW 04:04:40 23° NW 04:04:40 23° NW visible
